Regional Weather Roundup
Issued by NWS

Home | Current Version | Previous Version | Text Only | Print | Product List | Glossary On
Versions: 1 2 3 4 5 6 7 8 9 10 11 12 13 14 15 16 17 18 19 20 21 22 23 24 25 26 27 28 29 30 31 32 33 34 35 36 37 38 39 40 41 42 43 44 45 46 47 48 49 50
000
ASUS43 KDMX 232307
RWRIA

WEATHER ROUNDUP FOR IOWA
NATIONAL WEATHER SERVICE DES MOINES IA
600 PM CDT WED JUL 23 2014

NOTE: "FAIR" INDICATES FEW OR NO CLOUDS BELOW 12,000 FEET WITH NO
SIGNIFICANT WEATHER AND/OR OBSTRUCTIONS TO VISIBILITY.

* - THESE STATIONS ARE NOT NWS STATIONS...THUS NOT UNDER NWS
QUALITY CONTROL.  THEY ALSO DO NOT REPORT WEATHER SUCH
AS PRECIPITATION OR FOG.

IAZ001>003-012>014-020>022-031>034-043>046-240000-
   NORTHWEST IOWA

CITY           SKY/WX    TMP DP  RH WIND       PRES   REMARKS
CARROLL *      SUNNY     79  63  57 NE9       30.17S HX  80
CHEROKEE *     SUNNY     81  57  44 NE3       30.18F HX  81
DENISON *      SUNNY     79  61  53 E6G16     30.16S HX  80
LE MARS *      SUNNY     81  59  47 E8G14     30.18F HX  81
ORANGE CITY *  SUNNY     81  55  41 E7        30.19F HX  80
SHELDON *      SUNNY     79  57  47 NE7       30.18F HX  80
SIOUX CITY     SUNNY     82  59  45 E8        30.17F HX  82
SPENCER        SUNNY     81  59  47 NE6       30.20F HX  81
STORM LAKE *   SUNNY     79  61  53 NE5       30.19F HX  80
$$

IAZ055>058-069>071-079>083-090>094-240000-
   SOUTHWEST IOWA

CITY           SKY/WX    TMP DP  RH WIND       PRES   REMARKS
ATLANTIC *     SUNNY     81  61  50 NE9       30.14F HX  81
AUDUBON *      SUNNY     82  68  61 N7        30.18S HX  85
CLARINDA *     SUNNY     82  66  57 NE6G13    30.14F HX  85
COUNCIL BLFS * SUNNY     82  63  51 NE8       30.14F HX  83
CRESTON *      SUNNY     79  61  53 NE8G15    30.15F HX  80
HARLAN  *      SUNNY     81  63  54 NE7       30.19F HX  82
LAMONI         SUNNY     80  61  52 NE13      30.14F HX  81
RED OAK *      SUNNY     82  63  51 N12       30.14F HX  83
SHENANDOAH *   SUNNY     82  64  54 NE10      30.13F HX  84
$$

IAZ047>049-059>061-072>074-084-240000-
   CENTRAL IOWA

CITY           SKY/WX    TMP DP  RH WIND       PRES   REMARKS
AMES           MOSUNNY   79  58  48 N10       30.16F HX  80
ANKENY *       MOSUNNY   81  59  47 NE8       30.15F HX  81
CHARITON *     SUNNY     79  59  50 NE10      30.15F HX  80
DES MOINES     MOSUNNY   83  57  41 N14       30.15S HX  82
GRINNELL*      SUNNY     75  54  46 NE7       30.17F
KNOXVILLE *    SUNNY     79  57  47 NE13      30.14F HX  80
MARSHALLTOWN   MOSUNNY   80  57  45 NE10      30.16F HX  80
PELLA *        MOSUNNY   81  59  47 E6        30.16S HX  81
PERRY *          N/A     81  59  47 NE7       30.16F HX  81
$$

IAZ004>006-015-016-023>025-035-036-240000-
   NORTH CENTRAL IOWA

CITY           SKY/WX    TMP DP  RH WIND       PRES   REMARKS
ALGONA *       SUNNY     79  57  47 NE6       30.19F HX  80
CLARION *      MOSUNNY   79  57  47 VRB5      30.18F HX  80
ESTHERVILLE    SUNNY     79  57  46 N12       30.20F HX  80
FORT DODGE *   MOSUNNY   79  57  47 NE6       30.19S HX  80
MASON CITY     SUNNY     80  57  45 NW9       30.19F HX  80
FOREST CITY *  SUNNY     77  55  47 N8        30.19S
IOWA FALLS *     N/A     79  54  41 N9        30.19F
$$

IAZ007>011-017>019-026>030-037>042-050>054-066-240000-
   NORTHEAST IOWA

CITY           SKY/WX    TMP DP  RH WIND       PRES   REMARKS
CEDAR RAPIDS   PTSUNNY   77  55  46 N12       30.14F
CHARLES CITY * SUNNY     79  55  44 N9        30.18F
CLINTON *      MOSUNNY   75  57  53 N12G17    30.16F
DECORAH *      SUNNY     75  57  53 N7        30.16F
DUBUQUE        MOSUNNY   76  57  51 N10       30.15F
MONTICELLO *   MOSUNNY   79  59  50 VRB6      30.15S HX  80
OELWEIN *      SUNNY     79  55  44 N7        30.18F
WATERLOO       MOSUNNY   79  54  41 NE8       30.15F
$$

IAZ064-065-067-068-078-240000-
   EAST CENTRAL IOWA

CITY           SKY/WX    TMP DP  RH WIND       PRES   REMARKS
DAVENPORT      MOSUNNY   78  57  48 N12       30.14F
IOWA CITY      MOSUNNY   79  56  45 N12       30.15F HX  80
MT. PLEASANT * SUNNY     79  55  44 NE10      30.13S
MUSCATINE *    MOSUNNY   79  57  47 N10       30.13S HX  80
QUAD CITIES    PTSUNNY   77  54  44 N8        30.12F
$$

IAZ062-063-075>077-085>089-095>099-240000-
   SOUTHEAST IOWA

CITY           SKY/WX    TMP DP  RH WIND       PRES   REMARKS
BURLINGTON     MOSUNNY   79  58  48 NE15      30.12S HX  80
FAIRFIELD *    MOSUNNY   77  57  50 NE10      30.14S
FORT MADISON * SUNNY     79  57  47 N10       30.13R HX  80
KEOKUK *       SUNNY     79  59  50 NE8G14    30.11S HX  80
OSKALOOSA *      N/A     79  57  47 NE9       30.15S HX  80
CENTERVILLE *  SUNNY     79  59  50 N9        30.16S HX  80
OTTUMWA        MOSUNNY   79  56  45 NE8       30.14S HX  80
WASHINGTON *   PTSUNNY   79  59  50 NE9G15    30.14S HX  80
$$

ABBREVIATIONS USED IN REMARKS
   TC - TEMPERATURES IN CELSIUS
  WCI - WIND CHILL INDEX
   HX - HEAT INDEX
  VSB - VISIBILITY
$$



USA.gov is the U.S. government's official web portal to all federal, state and local government web resources and services.